User: anonymous   Login
Location: Bretagne
(43.8474°N, 0.4650°W)
Time: 21:31:48
(UTC+00:00)
Language:

SOZ - Orbit

View from above orbital plane
View from above orbital plane
View from above satellite
View from above satellite

Ground track
Ground track

The orbit is defined by the following mean orbital elements,

1 15054U          26069.50772569 +.00000000 +00000-0 +21500-2 0 00002
2 15054  51.9681 208.4160 4690608 133.7021 276.3302  6.16359683    08
Epoch (UTC): 10 March 2026 12:11:07
Eccentricity: 0.4690608
inclination: 51.9681°
perigee height: 293 km
apogee height: 12081 km
right ascension of ascending node: 208.4160°
argument of perigee: 133.7021°
revolutions per day: 6.16359683
mean anomaly at epoch: 276.3302°

The dashed part of the orbit path shows where the satellite is in the earth's shadow,  

DLR